When you browse on this site, cookies collect data to enhance your experience and personalize the content and advertising you see.
Visit our Privacy Policy to learn more. By continuing to use the site, you agree to this use of cookies and data.
  • In Deutschland
  • Länderverzeichnis
  • Für 7 Tage
  • Wassertemperatur
  • Wetterkarte
  • Widgets
  • user-avatar
    Anmelden

    Stündliche Wetter Beverly

    Heute, 18 Januar, Samstag

    Zeit Temperatur Niederschläge Wind Luftdruck Luftfeuchtigkeit
    00:00 +2°C° 0 mm 6 m/S 761 mmHg 85%
    01:00 +2°C° 0 mm 6 m/S 761 mmHg 83%
    02:00 +2°C° 0 mm 6 m/S 762 mmHg 80%
    03:00 +2°C° 0 mm 7 m/S 763 mmHg 78%
    04:00 0°C° 0 mm 7 m/S 763 mmHg 78%
    05:00 +1°C° 0 mm 6 m/S 764 mmHg 78%
    06:00 +1°C° 0 mm 6 m/S 764 mmHg 78%
    07:00 +1°C° 0 mm 6 m/S 765 mmHg 79%
    08:00 +1°C° 0 mm 6 m/S 766 mmHg 80%
    09:00 +1°C° 0 mm 5 m/S 766 mmHg 80%
    10:00 +2°C° 0 mm 5 m/S 767 mmHg 76%
    11:00 +3°C° 0 mm 6 m/S 768 mmHg 71%
    12:00 +4°C° 0 mm 6 m/S 768 mmHg 66%
    13:00 +4°C° 0 mm 6 m/S 769 mmHg 68%
    14:00 +5°C° 0 mm 5 m/S 769 mmHg 70%
    15:00 +5°C° 0 mm 5 m/S 770 mmHg 71%
    16:00 +3°C° 0 mm 5 m/S 770 mmHg 74%
    17:00 +3°C° 0 mm 4 m/S 771 mmHg 77%
    18:00 +1°C° 0 mm 4 m/S 772 mmHg 80%
    19:00 +1°C° 0 mm 4 m/S 773 mmHg 81%
    20:00 +1°C° 0 mm 4 m/S 773 mmHg 82%
    21:00 0°C° 0 mm 4 m/S 774 mmHg 82%
    22:00 0°C° 0 mm 4 m/S 775 mmHg 83%
    23:00 0°C° 0 mm 4 m/S 776 mmHg 83%

    Morgen, 19 Januar, Sonntag

    Zeit Temperatur Niederschläge Wind Luftdruck Luftfeuchtigkeit
    00:00 0°C° 0 mm 4 m/S 777 mmHg 83%
    01:00 -1°C° 0 mm 4 m/S 777 mmHg 83%
    02:00 -1°C° 0 mm 4 m/S 777 mmHg 84%
    03:00 0°C° 0 mm 3 m/S 778 mmHg 84%
    04:00 0°C° 0 mm 3 m/S 778 mmHg 83%
    05:00 0°C° 0 mm 3 m/S 779 mmHg 82%
    06:00 0°C° 0 mm 3 m/S 780 mmHg 81%
    07:00 +1°C° 0 mm 2 m/S 780 mmHg 79%
    08:00 +1°C° 0 mm 2 m/S 781 mmHg 77%
    09:00 +1°C° 0 mm 2 m/S 781 mmHg 75%
    10:00 +3°C° 0 mm 2 m/S 782 mmHg 70%
    11:00 +4°C° 0 mm 2 m/S 782 mmHg 65%
    12:00 +5°C° 0 mm 2 m/S 783 mmHg 59%
    13:00 +5°C° 0 mm 2 m/S 783 mmHg 63%
    14:00 +5°C° 0 mm 2 m/S 783 mmHg 66%
    15:00 +4°C° 0 mm 3 m/S 783 mmHg 69%
    16:00 +3°C° 0 mm 3 m/S 783 mmHg 74%
    17:00 +2°C° 0 mm 3 m/S 783 mmHg 80%
    18:00 +1°C° 0 mm 3 m/S 784 mmHg 86%
    19:00 +1°C° 0 mm 3 m/S 784 mmHg 88%
    20:00 +1°C° 0 mm 3 m/S 784 mmHg 89%
    21:00 +1°C° 0 mm 3 m/S 784 mmHg 91%
    22:00 +1°C° 0 mm 3 m/S 784 mmHg 91%
    23:00 +1°C° 0 mm 3 m/S 784 mmHg 91%

    übermorgen, 20 Januar, Montag

    Zeit Temperatur Niederschläge Wind Luftdruck Luftfeuchtigkeit
    00:00 +1°C° 0 mm 3 m/S 785 mmHg 91%
    01:00 +1°C° 0 mm 3 m/S 784 mmHg 91%
    02:00 +1°C° 0 mm 3 m/S 784 mmHg 90%
    03:00 0°C° 0 mm 4 m/S 784 mmHg 89%
    04:00 0°C° 0 mm 4 m/S 784 mmHg 90%
    05:00 -1°C° 0 mm 4 m/S 784 mmHg 90%
    06:00 -1°C° 0 mm 4 m/S 784 mmHg 91%
    07:00 0°C° 0 mm 4 m/S 784 mmHg 91%
    08:00 0°C° 0 mm 4 m/S 784 mmHg 91%
    09:00 0°C° 0 mm 4 m/S 784 mmHg 91%
    10:00 +1°C° 0 mm 4 m/S 784 mmHg 87%
    11:00 +4°C° 0 mm 4 m/S 784 mmHg 82%
    12:00 +5°C° 0 mm 4 m/S 784 mmHg 77%
    13:00 +5°C° 0 mm 4 m/S 784 mmHg 78%
    14:00 +5°C° 0 mm 4 m/S 783 mmHg 79%
    15:00 +5°C° 0 mm 4 m/S 783 mmHg 80%
    16:00 +4°C° 0 mm 4 m/S 783 mmHg 82%
    17:00 +3°C° 0 mm 4 m/S 783 mmHg 85%
    18:00 +1°C° 0 mm 4 m/S 783 mmHg 87%
    19:00 +1°C° 0 mm 4 m/S 782 mmHg 87%
    20:00 +1°C° 0 mm 4 m/S 782 mmHg 86%
    21:00 0°C° 0 mm 4 m/S 782 mmHg 86%
    22:00 0°C° 0 mm 4 m/S 782 mmHg 87%
    23:00 0°C° 0 mm 4 m/S 782 mmHg 87%

    21 Januar, Dienstag

    Zeit Temperatur Niederschläge Wind Luftdruck Luftfeuchtigkeit
    00:00 0°C° 0 mm 4 m/S 782 mmHg 88%
    01:00 0°C° 0 mm 4 m/S 781 mmHg 88%
    02:00 0°C° 0 mm 4 m/S 781 mmHg 88%
    03:00 0°C° 0 mm 4 m/S 781 mmHg 89%
    04:00 0°C° 0 mm 4 m/S 781 mmHg 90%
    05:00 0°C° 0 mm 4 m/S 781 mmHg 91%
    06:00 0°C° 0 mm 4 m/S 780 mmHg 92%
    07:00 +1°C° 0 mm 3 m/S 781 mmHg 92%
    08:00 +1°C° 0 mm 3 m/S 781 mmHg 93%
    09:00 +1°C° 0 mm 3 m/S 781 mmHg 93%
    10:00 +2°C° 0 mm 3 m/S 781 mmHg 89%
    11:00 +3°C° 0 mm 3 m/S 781 mmHg 85%
    12:00 +4°C° 0 mm 3 m/S 780 mmHg 81%
    13:00 +6°C° 0 mm 2 m/S 780 mmHg 82%
    14:00 +6°C° 0 mm 2 m/S 780 mmHg 83%
    15:00 +7°C° 0 mm 1 m/S 780 mmHg 83%
    16:00 +6°C° 0 mm 1 m/S 780 mmHg 85%
    17:00 +6°C° 0 mm 1 m/S 780 mmHg 87%
    18:00 +5°C° 0 mm 1 m/S 780 mmHg 89%
    19:00 +4°C° 0 mm 2 m/S 780 mmHg 90%
    20:00 +4°C° 0 mm 2 m/S 780 mmHg 91%
    21:00 +4°C° 0 mm 2 m/S 780 mmHg 92%
    22:00 +4°C° 0 mm 2 m/S 780 mmHg 92%
    23:00 +4°C° 0 mm 2 m/S 780 mmHg 93%

    22 Januar, Mittwoch

    Zeit Temperatur Niederschläge Wind Luftdruck Luftfeuchtigkeit
    00:00 +4°C° 0 mm 2 m/S 780 mmHg 93%
    01:00 +4°C° 0 mm 2 m/S 779 mmHg 93%
    02:00 +5°C° 0 mm 1 m/S 779 mmHg 93%
    03:00 +5°C° 0 mm 1 m/S 779 mmHg 93%
    04:00 +6°C° 0 mm 1 m/S 779 mmHg 93%
    05:00 +6°C° 0 mm 1 m/S 779 mmHg 93%
    06:00 +6°C° 0 mm 1 m/S 778 mmHg 93%
    07:00 +6°C° 0 mm 1 m/S 778 mmHg 94%
    08:00 +6°C° 0 mm 1 m/S 778 mmHg 94%
    09:00 +6°C° 0 mm 1 m/S 778 mmHg 94%
    10:00 +7°C° 0 mm 1 m/S 778 mmHg 92%
    11:00 +8°C° 0 mm 1 m/S 779 mmHg 90%
    12:00 +8°C° 0 mm 1 m/S 779 mmHg 87%
    13:00 +9°C° 0 mm 1 m/S 778 mmHg 88%
    14:00 +9°C° 0 mm 1 m/S 778 mmHg 89%
    15:00 +9°C° 0 mm 1 m/S 778 mmHg 90%
    16:00 +8°C° 0 mm 1 m/S 778 mmHg 92%
    17:00 +8°C° 0 mm 1 m/S 778 mmHg 93%
    18:00 +7°C° 0 mm 1 m/S 777 mmHg 95%
    19:00 +6°C° 0 mm 1 m/S 777 mmHg 95%
    20:00 +6°C° 0 mm 1 m/S 777 mmHg 95%
    21:00 +6°C° 0 mm 1 m/S 777 mmHg 95%
    22:00 +5°C° 0 mm 1 m/S 777 mmHg 95%
    23:00 +5°C° 0 mm 1 m/S 777 mmHg 95%

    23 Januar, Donnerstag

    Zeit Temperatur Niederschläge Wind Luftdruck Luftfeuchtigkeit
    00:00 +5°C° 0 mm 1 m/S 777 mmHg 95%
    01:00 +5°C° 0 mm 1 m/S 777 mmHg 95%
    02:00 +4°C° 0 mm 0 m/S 776 mmHg 95%
    03:00 +4°C° 0 mm 0 m/S 776 mmHg 96%
    04:00 +3°C° 0 mm 0 m/S 776 mmHg 95%
    05:00 +3°C° 0 mm 0 m/S 776 mmHg 95%
    06:00 +3°C° 0 mm 0 m/S 775 mmHg 95%
    07:00 +3°C° 0 mm 0 m/S 775 mmHg 95%
    08:00 +3°C° 0 mm 0 m/S 775 mmHg 94%
    09:00 +3°C° 0 mm 0 m/S 775 mmHg 94%
    10:00 +5°C° 0 mm 0 m/S 775 mmHg 90%
    11:00 +7°C° 0 mm 1 m/S 775 mmHg 86%
    12:00 +8°C° 0 mm 1 m/S 775 mmHg 82%
    13:00 +8°C° 0 mm 1 m/S 775 mmHg 82%
    14:00 +8°C° 0 mm 1 m/S 774 mmHg 82%
    15:00 +8°C° 0 mm 1 m/S 773 mmHg 82%
    16:00 +7°C° 0 mm 1 m/S 773 mmHg 85%
    17:00 +6°C° 0 mm 1 m/S 773 mmHg 87%
    18:00 +5°C° 0 mm 1 m/S 773 mmHg 89%
    19:00 +4°C° 0 mm 1 m/S 773 mmHg 90%
    20:00 +4°C° 0 mm 1 m/S 773 mmHg 90%
    21:00 +3°C° 0 mm 2 m/S 773 mmHg 90%
    22:00 +2°C° 0 mm 2 m/S 772 mmHg 90%
    23:00 +2°C° 0 mm 2 m/S 772 mmHg 91%
    Mehr zeigen